ALESUND / VIGRA current weather conditions

sailwx.info

Wind from 200 at 6 knots

Air temperature 7.0° C
Visibility: greater than 5.4 NM
Dewpoint 3.0° C

Last reported at 2014-Nov-25 19:20 UTC.
Time now 2014-Nov-25 20:55 UTC

Location: N 62°34' E 006°07'.
View on Google Maps.

See reports from other nearby stations

  
Tides and Currents Weather Stations Pressure Air Temp Water Temp Dewpoint Dewpoint Depression Visibility Wind Speed Wind Dir Waves Ship Positions
date/time (UTC)wind fromknots sea level pressurealtimeterstation pressurevisibilityair tempwater tempwave heightnotes
2014-Nov-25 19:20 200 6 5.4 7.0
2014-Nov-25 18:50 190 7 5.4 7.0
2014-Nov-25 17:50 190 6 5.4 7.0
2014-Nov-25 17:20 190 7 gusting 19 5.4 7.0
2014-Nov-25 16:50 240 10 5.4 7.0
2014-Nov-25 16:20 210 5 5.4 7.0
2014-Nov-25 15:50 230 5 5.4 6.0
2014-Nov-25 15:20 280 16 2.7 6.0 Rain.
2014-Nov-25 14:50 260 11 5.4 8.0
2014-Nov-25 14:20 260 7 5.4 8.0
2014-Nov-25 13:50 270 8 5.4 7.0
2014-Nov-25 13:20 240 13 5.4 7.0
2014-Nov-25 12:50 250 11 5.4 8.0 Showers in the vicinity.
2014-Nov-25 12:20 270 10 5.4 8.0
2014-Nov-25 11:50 260 13 5.4 9.0
2014-Nov-25 11:20 270 13 5.4 8.0
2014-Nov-25 10:50 270 13 5.4 9.0
2014-Nov-25 10:20 270 14 5.4 9.0
2014-Nov-25 09:50 270 15 5.4 9.0 Showers in the vicinity.
2014-Nov-25 08:50 270 14 5.4 9.0
2014-Nov-25 08:20 260 15 5.4 9.0
2014-Nov-25 07:50 250 13 5.4 8.0 Showers in the vicinity.
2014-Nov-25 07:20 250 14 5.4 8.0 Showers in the vicinity.
2014-Nov-25 06:50 250 15 5.4 8.0 Rain showers.
2014-Nov-25 05:50 250 15 5.4 9.0 Light rain showers.
2014-Nov-25 05:20 250 19 5.4 9.0 Light rain showers.
2014-Nov-25 04:50 230 18 5.4 8.0 Light rain showers.
2014-Nov-25 04:20 210 16 5.4 8.0 Light rain.
2014-Nov-25 03:50 190 11 5.4 8.0
2014-Nov-25 03:20 190 13 5.4 8.0 Light rain.
2014-Nov-25 02:50 200 12 5.4 9.0
2014-Nov-25 02:20 200 10 5.4 9.0
2014-Nov-25 01:50 210 12 5.4 9.0
2014-Nov-25 01:20 200 9 5.4 9.0
2014-Nov-25 00:50 200 8 5.4 9.0
2014-Nov-25 00:20 200 10 5.4 9.0
2014-Nov-24 23:50 210 7 5.4 9.0
2014-Nov-24 23:20 220 13 5.4 8.0
2014-Nov-24 22:50 240 15 5.4 8.0
2014-Nov-24 22:20 250 17 5.4 8.0
2014-Nov-24 21:50 250 14 5.4 8.0
2014-Nov-24 21:20 260 10 5.4 8.0
2014-Nov-24 20:50 270 8 5.4 8.0
2014-Nov-24 20:20 270 7 5.4 8.0
2014-Nov-24 19:50 270 13 2.4 8.0 Rain.
2014-Nov-24 19:20 270 13 5.4 8.0
2014-Nov-24 18:50 280 9 5.4 8.0
2014-Nov-24 18:20 290 9 5.4 8.0 Light rain.
2014-Nov-24 17:50 280 9 5.4 8.0 Rain.
2014-Nov-24 17:20 290 10 5.4 8.0 Light drizzle.
2014-Nov-24 16:50 300 9 5.4 8.0
2014-Nov-24 16:20 310 10 5.4 8.0
2014-Nov-24 15:50 310 12 5.4 8.0
2014-Nov-24 15:20 310 12 5.4 8.0
2014-Nov-24 14:50 310 13 5.4 8.0 Showers in the vicinity.
2014-Nov-24 14:20 300 11 5.4 8.0 Light rain.
2014-Nov-24 13:50 290 13 5.4 8.0
2014-Nov-24 13:20 310 15 5.4 8.0
2014-Nov-24 12:20 310 17 5.4 9.0
2014-Nov-24 11:50 310 14 5.4 9.0
2014-Nov-24 11:20 310 15 5.4 8.0 Light drizzle.
2014-Nov-24 10:50 330 11 5.4 8.0 Light rain.
2014-Nov-24 10:20 310 18 5.4 8.0 Light rain.
2014-Nov-24 09:50 320 0 5.4 7.0 Light rain.
2014-Nov-24 09:20 210 5 4.3 7.0 Rain.
2014-Nov-24 08:50 300 3 5.4 6.0 Light rain.
2014-Nov-24 08:20 330 6 5.4 7.0 Light rain.
2014-Nov-24 07:50 330 9 5.4 7.0 Light rain.
2014-Nov-24 07:20 330 12 5.4 7.0 Rain.
2014-Nov-24 06:50 5.4 7.0 Light rain.
2014-Nov-24 06:20 190 9 5.4 7.0 Light rain.
2014-Nov-24 05:50 210 8 5.4 6.0 Light rain.
2014-Nov-24 05:20 200 8 5.4 6.0 Light rain.
2014-Nov-24 04:50 200 8 5.4 6.0 Light rain.
2014-Nov-24 04:20 200 8 5.4 6.0 Light rain.
2014-Nov-24 03:50 210 7 5.4 6.0
2014-Nov-24 03:20 230 8 5.4 6.0 Light rain.
2014-Nov-24 02:50 240 6 5.4 5.0
2014-Nov-24 02:20 240 8 5.4 5.0 Light rain.
2014-Nov-24 01:50 220 4 5.4 5.0 Light rain.
2014-Nov-24 01:20 170 3 5.4 5.0 Light rain.
2014-Nov-24 00:50 190 2 5.4 5.0
2014-Nov-24 00:20 160 4 5.4 5.0 Drizzle.
2014-Nov-23 23:50 150 4 5.4 5.0
2014-Nov-23 23:20 140 6 5.4 6.0 Light rain.
2014-Nov-23 22:50 140 6 5.4 6.0
2014-Nov-23 22:20 120 6 5.4 6.0 Light rain.
2014-Nov-23 21:50 120 6 5.4 6.0 Light rain.
2014-Nov-23 21:20 120 10 5.4 6.0 Light rain.
2014-Nov-23 20:20 120 10 5.4 6.0 Light rain.